ORBCOMM FM109

Last updated on Tue Sep 22 2026 00:03:23 GMT+0000 (Coordinated Universal Time)

1 40086U 14040A 26264.52610512 .00000162 00000+0 70343-4 0 9998 2 40086 47.0048 355.9753 0002147 282.9252 77.1394 14.58922831648411
UTC large
Height (km)
Speed (km/s)
/
Latitude / Longitude
Inclination (degrees)
Orbital Period (minutes)
Azimuth
Elevation
Range (km)
Doppler Factor

Next 0 passes for location: London (51.5072 / 0.1276)

No passes found over London.
ORBCOMM FM109